User: anonymous   Login
Location: Unspecified
(0.0000°N, 0.0000°E)
Time: 00:00:46
(UTC+00:00)
Language:

STARLINK-1304 - Orbit

View from above orbital plane
View from above orbital plane
View from above satellite
View from above satellite

Ground track
Ground track

The orbit is defined by the following mean orbital elements,

1 45376U          26145.26755602 +.00000000 +00000-0 +10235-2 0 00002
2 45376  53.0418 139.3563 0006175  27.0698 333.0635 15.60808819    08
Epoch (UTC): 25 May 2026 06:25:16
Eccentricity: 0.0006175
inclination: 53.0418°
perigee height: 381 km
apogee height: 389 km
right ascension of ascending node: 139.3563°
argument of perigee: 27.0698°
revolutions per day: 15.60808819
mean anomaly at epoch: 333.0635°

The dashed part of the orbit path shows where the satellite is in the earth's shadow,  

DLR